Vertical_Velocity
-1 -1 -1 -0 1 -1 -1 -3 -2 -1 2 3 0 -5 -4 -2 0 0 0 -0 -2 -3 -4 -1 3 0 1 2 -1 -1 4 2 0 -1 3 2 0 -2 -4 -1 1 2 -2 -2
-1 -1 -1 -1 -1 -0 -0 0 -1 -7 -3 -4 -4 -2 -4 -4 -2 -4 -4 -3 -1 -1 1 3 -4 -1 -2 -1 -2 -1 -2 -1 1 0 -1 1 2 2 0 -1 -4 -5 -0 2
-1 -2 -2 -1 -1 -3 -2 -2 -1 -3 0 -6 -6 -6 -5 -5 -5 -4 -2 -2 -1 -1 1 -3 2 -2 0 -1 -0 0 -2 -2 -2 -2 -3 -4 -3 -2 -3 -1 -0 -2 -3 -3
1 0 -2 -1 -1 -0 -2 -1 -1 0 -1 -4 -3 -2 -7 -6 -1 -2 -4 -2 -2 2 2 4 -1 1 -1 -1 -2 -1 0 0 0 -0 -1 -0 -1 -3 -4 -4 -2 -2 -2 -5
-1 -0 0 -1 -1 -2 -2 0 -0 1 3 1 -4 -6 -3 0 -1 3 2 -3 -1 -4 -2 -4 -2 -4 -3 -0 -0 1 -2 -1 -2 -4 -2 -3 -3 -2 -3 -4 -4 -3 -2 -0
-0 0 -0 -0 -1 -1 -1 -3 -2 -2 3 4 2 1 1 2 -5 -4 -1 -1 -2 -2 -1 1 -3 1 0 3 3 0 -0 -2 -4 -2 0 1 -1 -2 -2 -4 -4 -3 -3 -4
-1 -1 -0 1 -0 -1 -3 -7 -7 -4 -7 1 1 -2 -3 -4 -6 0 1 -0 3 1 0 3 1 -2 2 -2 -4 -5 -4 -1 -1 0 -2 -1 -1 -2 -2 -3 -4 -2 -4 -3
1 -1 -3 -1 -2 -2 0 2 -1 -21 -13 -3 8 7 -2 4 -4 -2 -1 1 2 1 0 -0 -1 1 -5 -8 -9 -2 -1 -2 -3 -3 0 -0 0 -2 -3 -3 -4 -7 -2 -4
-5 8 -2 -3 1 -3 -3 -0 -3 -9 1 -9 -1 8 13 1 -4 -4 -2 -2 -1 0 1 -0 -0 -0 3 5 4 1 -1 -5 -2 -2 1 -1 -2 -3 -1 -2 0 -3 -4 -3
-2 2 -1 -1 -2 3 4 3 -6 -6 -17 -23 -6 -2 1 3 5 -2 -3 -1 1 -1 5 0 1 3 4 3 2 1 -0 1 -0 -1 0 1 -2 -1 -3 -3 -6 -4 -4 -3
-5 5 5 -2 -2 -3 2 6 2 -2 4 -4 -23 7 7 3 6 -1 0 0 2 1 1 1 -0 0 1 0 1 0 -0 -2 -2 -0 0 -1 -3 -3 -4 -5 -7 -5 -7 -4
-1 -7 -1 9 2 -3 3 4 1 -3 0 1 3 -25 5 -0 4 -2 -2 -0 3 2 -1 3 4 3 -2 -0 -0 -2 -2 -3 -1 1 -1 -1 -2 -2 -4 -5 -5 -6 -7 -2
2 -1 -16 5 7 -4 -2 9 4 -6 1 14 2 -0 -3 4 -8 -4 -3 4 2 1 -3 -2 -3 1 -1 -2 -2 -3 -1 -0 -1 -1 -1 -3 -3 -3 -2 -3 -4 -3 -2 -4
-14 6 6 -3 0 -17 -7 2 -1 1 -9 -7 10 -40 38 -2 -6 -1 -1 -1 1 -1 0 -0 0 3 4 3 -0 1 -2 -2 -3 -1 0 -2 -1 -4 -4 -2 -0 -1 -1 0
-5 -9 -16 9 7 -6 -2 10 14 2 8 0 -15 -2 2 -13 1 -2 0 2 2 0 -1 2 4 -0 -1 -0 -0 0 -1 -2 -4 -2 -1 -3 -5 -3 -3 -1 0 -0 -1 1
5 -16 -9 -7 1 -2 -18 28 6 17 12 -5 1 -22 7 3 4 2 3 5 6 2 5 1 -3 -5 -0 -1 -0 -1 -1 2 1 1 -1 0 -0 -0 -0 1 -0 -3 -1 1
3 -0 6 -41 -6 -8 -12 7 8 -2 2 7 2 2 -9 -3 7 2 -2 1 3 2 0 3 2 0 -3 -2 -0 -3 -3 -2 -0 -0 -2 -2 -1 1 0 0 -0 -0 1 1
1 9 12 -13 4 -25 3 7 1 -5 3 0 -2 -4 -0 1 -1 -2 -6 -0 0 1 1 0 -1 3 4 1 -0 1 1 -2 -1 -2 1 1 -0 -1 -1 -1 -1 1 1 -0
5 8 2 4 -0 -18 13 16 6 2 -23 8 0 0 -1 -1 0 4 2 -1 -3 -2 -2 -2 -4 -0 0 -0 -1 -3 -1 -0 -2 0 1 -0 -1 -1 -2 -0 1 -0 -1 0
5 2 6 13 22 0 6 1 4 3 -21 -1 -2 -7 -5 -4 -7 -0 -3 1 -0 -2 -2 2 0 -3 -3 -2 -3 -0 1 -1 -0 1 -1 -1 0 -1 -1 -2 -1 -1 -1 1
-3 -5 0 4 3 -17 7 -2 0 -2 -14 -8 -6 -4 -0 -5 -6 0 -0 -2 0 2 5 -1 -3 -2 -3 -2 -1 -1 -0 -1 -1 -2 0 -2 -0 -1 -0 -2 0 -1 -1 -1
-3 -0 2 -4 1 -5 1 -1 8 4 0 -5 -2 2 5 3 -2 1 1 3 4 -0 -1 1 -1 -3 -2 -1 0 -0 0 -0 1 -2 -1 -2 -1 -1 -0 -0 -1 -1 -1 -0
-20 9 -3 15 7 8 2 1 -1 1 2 1 1 3 1 7 9 3 2 -1 1 -1 -4 -2 -1 1 0 2 1 -0 -0 -0 1 -2 -2 -1 -1 -1 -2 0 -0 -0 0 -0
4 6 -5 9 -0 2 4 0 0 2 1 4 1 3 12 5 -3 -1 -3 -3 -4 -1 -3 -1 -0 -1 -0 2 1 -1 1 -0 1 -2 -1 -0 -1 0 -2 -0 -1 -1 -0 -1
-1 6 4 -1 -0 -10 -6 -5 2 4 0 0 2 3 -1 2 -0 2 2 4 -1 -2 -2 -2 -1 -0 -1 -0 -2 -1 1 1 -1 -1 1 1 -1 -0 0 -0 -0 -1 -1 -1
9 4 -1 -3 -3 -6 -1 1 1 2 0 2 2 2 2 4 6 1 2 -1 -1 -2 -2 -1 -1 -1 -0 1 -1 -0 1 2 0 -1 2 1 -0 0 0 0 2 -1 -1 -0
Height
5828 5825 5821 5817 5814 5810 5806 5802 5798 5792 5787 5782 5779 5775 5771 5766 5762 5758 5755 5751 5748 5744 5741 5737 5734 5731 5727 5723 5720 5717 5713 5710 5707 5705 5702 5699 5696 5695 5694 5692 5691 5689 5687 5688
5827 5823 5819 5815 5811 5807 5803 5799 5794 5789 5784 5780 5776 5772 5768 5764 5759 5755 5750 5746 5743 5739 5735 5732 5728 5724 5721 5717 5714 5711 5707 5704 5701 5698 5696 5693 5690 5688 5685 5684 5682 5680 5679 5677
5823 5821 5817 5813 5809 5804 5799 5794 5790 5787 5781 5776 5772 5768 5763 5759 5754 5749 5745 5741 5737 5733 5730 5726 5722 5719 5715 5711 5708 5704 5700 5697 5694 5692 5689 5686 5683 5681 5678 5675 5672 5670 5668 5667
5821 5817 5814 5810 5805 5801 5796 5791 5786 5782 5778 5772 5767 5764 5757 5753 5748 5743 5739 5735 5731 5727 5723 5719 5715 5710 5706 5703 5700 5697 5694 5690 5687 5684 5682 5679 5676 5673 5670 5666 5662 5659 5656 5654
5817 5812 5808 5805 5801 5797 5793 5787 5782 5777 5773 5769 5763 5758 5753 5747 5742 5737 5732 5728 5724 5720 5717 5712 5706 5703 5700 5696 5692 5689 5686 5683 5679 5676 5672 5669 5665 5662 5659 5656 5652 5649 5646 5642
5812 5808 5804 5800 5795 5791 5787 5783 5777 5772 5767 5763 5757 5752 5749 5741 5736 5731 5726 5720 5716 5713 5709 5704 5697 5693 5689 5685 5682 5679 5676 5673 5669 5666 5662 5658 5654 5651 5648 5644 5641 5638 5634 5631
5807 5803 5799 5794 5790 5786 5781 5776 5771 5766 5760 5755 5750 5745 5740 5734 5728 5723 5717 5712 5707 5703 5699 5694 5691 5687 5683 5680 5675 5670 5665 5661 5658 5653 5649 5646 5643 5639 5635 5632 5628 5624 5621 5617
5802 5799 5793 5788 5783 5778 5773 5769 5764 5757 5753 5749 5745 5738 5734 5727 5720 5715 5710 5704 5698 5694 5691 5685 5680 5677 5673 5669 5664 5658 5654 5651 5647 5642 5638 5634 5631 5627 5622 5618 5614 5610 5606 5601
5793 5792 5787 5782 5776 5772 5765 5761 5756 5750 5746 5739 5736 5730 5726 5718 5712 5705 5700 5695 5689 5685 5681 5675 5669 5664 5658 5654 5652 5649 5644 5641 5636 5631 5626 5621 5616 5612 5608 5603 5598 5594 5589 5584
5786 5782 5781 5775 5770 5766 5760 5754 5748 5742 5736 5729 5727 5720 5718 5714 5706 5698 5692 5686 5681 5677 5672 5667 5661 5657 5652 5646 5642 5638 5634 5629 5623 5618 5613 5608 5604 5600 5594 5588 5584 5579 5574 5568
5777 5774 5774 5767 5763 5757 5752 5744 5739 5735 5728 5717 5711 5711 5707 5701 5693 5687 5682 5677 5673 5669 5664 5658 5652 5647 5642 5637 5632 5626 5620 5615 5611 5606 5602 5596 5590 5584 5578 5573 5568 5563 5557 5552
5769 5763 5762 5758 5754 5749 5742 5734 5729 5723 5717 5708 5700 5701 5698 5691 5683 5678 5673 5669 5665 5660 5654 5649 5643 5637 5632 5626 5620 5614 5609 5603 5598 5593 5587 5580 5574 5568 5562 5555 5550 5545 5541 5535
5760 5753 5751 5746 5743 5738 5730 5723 5718 5712 5705 5704 5688 5689 5681 5678 5670 5666 5662 5659 5654 5649 5643 5638 5632 5626 5620 5614 5608 5602 5596 5589 5584 5577 5570 5564 5558 5551 5544 5539 5533 5527 5522 5518
5749 5745 5744 5738 5734 5729 5722 5712 5709 5701 5692 5690 5685 5676 5676 5664 5659 5655 5651 5646 5641 5636 5631 5625 5619 5613 5607 5601 5594 5587 5581 5574 5567 5560 5552 5546 5539 5533 5527 5521 5515 5508 5503 5499
5739 5733 5730 5727 5722 5716 5710 5703 5700 5690 5684 5671 5672 5666 5664 5651 5648 5642 5638 5633 5628 5623 5617 5612 5607 5600 5593 5587 5580 5572 5565 5558 5551 5543 5535 5528 5522 5515 5508 5501 5495 5490 5486 5481
5726 5719 5716 5716 5709 5702 5699 5699 5688 5683 5676 5662 5657 5655 5649 5643 5636 5630 5626 5621 5615 5610 5605 5599 5593 5586 5579 5571 5564 5557 5549 5542 5534 5526 5517 5510 5503 5496 5488 5481 5476 5471 5467 5462
5712 5707 5700 5697 5694 5689 5687 5683 5676 5668 5663 5652 5644 5641 5634 5632 5626 5620 5614 5609 5603 5597 5592 5585 5578 5570 5563 5556 5549 5541 5533 5525 5516 5508 5500 5493 5485 5477 5471 5465 5460 5454 5450 5445
5701 5696 5688 5681 5679 5674 5674 5668 5661 5652 5651 5639 5633 5627 5622 5616 5611 5605 5600 5596 5589 5583 5577 5570 5563 5556 5549 5541 5533 5524 5516 5507 5499 5491 5483 5475 5467 5460 5455 5450 5445 5440 5435 5432
5693 5685 5675 5667 5662 5657 5664 5653 5644 5635 5635 5628 5617 5613 5608 5604 5598 5592 5586 5579 5574 5567 5561 5555 5548 5541 5532 5524 5515 5507 5499 5490 5483 5475 5467 5459 5452 5445 5440 5435 5431 5426 5423 5421
5681 5674 5666 5659 5648 5640 5641 5637 5628 5620 5617 5611 5605 5600 5595 5590 5585 5578 5571 5565 5559 5553 5546 5539 5531 5523 5515 5506 5498 5490 5482 5474 5467 5459 5452 5445 5438 5433 5427 5421 5418 5414 5411 5409
5667 5660 5654 5647 5637 5632 5629 5622 5615 5609 5604 5597 5592 5586 5579 5574 5569 5563 5557 5550 5544 5537 5530 5521 5513 5504 5496 5488 5481 5473 5465 5459 5452 5445 5438 5433 5426 5422 5416 5411 5408 5404 5401 5398
5651 5647 5642 5634 5627 5620 5616 5609 5604 5596 5587 5581 5576 5571 5566 5558 5552 5547 5540 5533 5526 5519 5511 5503 5494 5486 5479 5471 5464 5456 5450 5444 5437 5432 5426 5421 5416 5411 5406 5402 5398 5395 5391 5389
5637 5634 5627 5624 5615 5607 5601 5595 5588 5581 5574 5568 5561 5556 5550 5543 5537 5531 5524 5517 5508 5500 5493 5485 5477 5469 5462 5455 5448 5442 5435 5430 5424 5420 5414 5409 5404 5399 5395 5391 5388 5384 5381 5379
5624 5617 5613 5607 5604 5595 5587 5580 5574 5567 5560 5552 5546 5540 5534 5526 5519 5512 5504 5497 5490 5483 5476 5468 5460 5453 5446 5439 5433 5428 5422 5416 5411 5407 5401 5397 5392 5387 5383 5380 5377 5374 5371 5368
5609 5603 5597 5592 5585 5578 5572 5565 5558 5550 5542 5536 5531 5525 5517 5509 5501 5493 5486 5479 5472 5464 5457 5450 5443 5436 5429 5423 5419 5414 5408 5403 5398 5393 5389 5384 5380 5375 5371 5368 5365 5363 5360 5358
5592 5587 5582 5575 5567 5561 5555 5547 5540 5532 5525 5519 5514 5506 5498 5490 5482 5475 5466 5459 5453 5446 5439 5432 5426 5420 5414 5408 5403 5399 5394 5389 5384 5380 5376 5372 5367 5363 5360 5357 5354 5351 5349 5347